Location: Madrid
(40.4000°N, 3.6830°W)
Time: 18:46:27
(UTC+01:00)

ISS - Pass Details

Date: 19 January 2020
Orbit: 415 x 422 km, 51.6° (Epoch: 23 January)

Event Time Altitude Azimuth Distance (km) Brightness Sun altitude
Rises 19:05:37 0° 185° (S) 2,354 0.4 -9.4°
Reaches altitude 10° 19:08:48 10° 152° (SSE) 1,495 -1.1 -10.0°
Maximum altitude 19:10:06 12° 129° (SE) 1,389 -1.4 -10.2°
Enters shadow 19:11:14 10° 109° (ESE) 1,471 -1.5 -10.4°
